This is the latest recevied weather packets stored in our database for station/object DL2ARH-7. If no packets are shown the sender has not sent any weather packets the latest 1 day(s).
| Time | Temp. | Humidity | Pressure | Rain* | Wind** | Luminosity | Snow |
|---|---|---|---|---|---|---|---|
| 1778070950 | 21.11° C | 18% | 1005.2 hPa | 0 mm | - | - | - |
| 1778070750 | 21.11° C | 17% | 1005.3 hPa | 0 mm | - | - | - |
| 1778070615 | 22.22° C | 17% | 1005.3 hPa | 0 mm | - | - | - |
| 1778070082 | 21.67° C | 18% | 1005.2 hPa | 0 mm | - | - | - |
| 1778069947 | 21.67° C | 19% | 1005.3 hPa | 0 mm | - | - | - |
| 1778069881 | 21.67° C | 19% | 1005.3 hPa | 0 mm | - | - | - |
| 1778069680 | 21.11° C | 19% | 1005.4 hPa | 0 mm | - | - | - |
| 1778069614 | 21.11° C | 19% | 1005.4 hPa | 0 mm | - | - | - |
| 1778069547 | 20.56° C | 19% | 1005.3 hPa | 0 mm | - | - | - |
| 1778069282 | 21.11° C | 20% | 1005.2 hPa | 0 mm | - | - | - |
| 1778069149 | 20.56° C | 20% | 1005.4 hPa | 0 mm | - | - | - |
| 1778069081 | 20.56° C | 20% | 1005.3 hPa | 0 mm | - | - | - |
| 1778068881 | 20.56° C | 21% | 1005.4 hPa | 0 mm | - | - | - |
| 1778068814 | 20.56° C | 21% | 1005.3 hPa | 0 mm | - | - | - |
| 1778068614 | 20.56° C | 20% | 1005.1 hPa | 0 mm | - | - | - |
| 1778068481 | 20.56° C | 20% | 1005.2 hPa | 0 mm | - | - | - |
| 1778068282 | 20.56° C | 21% | 1005.3 hPa | 0 mm | - | - | - |
| 1778067950 | 21.11° C | 22% | 1005.3 hPa | 0 mm | - | - | - |
| 1778067152 | 21.11° C | 24% | 1005.4 hPa | 0 mm | - | - | - |
| 1778066687 | 21.11° C | 23% | 1005.4 hPa | 0 mm | - | - | - |
| 1778066619 | 20.56° C | 23% | 1005.4 hPa | 0 mm | - | - | - |
| 1778066354 | 20.56° C | 23% | 1005.3 hPa | 0 mm | - | - | - |
| 1778066287 | 21.11° C | 23% | 1005.3 hPa | 0 mm | - | - | - |
| 1778066021 | 21.11° C | 22% | 1005.5 hPa | 0 mm | - | - | - |
| 1778065955 | 21.11° C | 22% | 1005.3 hPa | 0 mm | - | - | - |
* Rain latest hour (hover to see other rain measurements)
** Current wind speed in m/s (hover to see current wind gust speed)